Wetbulb
55.73 52.08 49.89 51.67 52.49 52.21 50.91 50.38 49.84 52.43 54.01 52.88 53.23 53.67 55.28 56.72 59.85 60.53 62.30 64.49 67.17 68.87 71.39 73.36 73.99 74.22 74.49 72.74 72.95 72.59 71.93 71.29 71.32 69.89 67.25 66.10 65.19 64.47 63.33 62.49 60.57 59.67 58.89 58.72
52.70 49.79 52.90 52.78 51.90 50.47 50.08 49.51 50.12 52.20 53.71 53.78 53.03 52.88 54.86 56.59 58.13 60.63 62.27 64.25 66.25 68.72 70.35 69.99 69.72 71.57 70.87 70.40 70.12 70.43 70.52 70.23 70.41 70.77 70.44 68.76 66.29 64.15 62.76 61.25 59.36 57.45 57.09 57.93
50.81 51.63 53.38 52.08 51.06 49.95 50.47 49.36 49.82 50.03 52.98 54.05 52.76 51.58 53.93 56.28 61.14 63.55 63.85 64.63 65.75 65.58 66.53 67.37 66.22 67.19 66.92 67.28 68.09 68.58 69.25 69.09 68.80 68.30 67.00 65.51 64.72 64.15 62.24 59.97 56.84 56.78 56.58 56.79
52.30 53.93 51.44 51.27 50.46 51.71 48.89 52.32 51.38 50.94 50.41 47.27 53.16 46.42 52.96 55.33 57.31 60.20 62.02 62.96 62.70 63.51 64.35 65.26 65.56 64.75 64.31 64.17 65.21 65.88 66.13 66.17 66.22 66.70 66.43 66.83 65.19 64.46 56.95 56.73 54.81 55.49 56.80 56.10
50.42 50.95 50.86 49.90 51.06 52.84 50.67 52.41 52.25 52.03 50.95 50.83 50.20 47.59 52.07 54.92 54.75 57.50 60.86 61.51 60.99 61.34 63.68 63.45 62.89 62.21 61.76 62.42 62.93 63.39 63.74 63.76 64.29 64.52 63.77 61.77 58.45 59.22 57.62 55.23 54.85 54.39 54.66 56.61
52.11 54.30 53.20 52.20 53.51 53.33 53.45 52.58 52.70 52.79 51.38 46.07 49.13 48.19 49.20 52.52 54.72 57.81 61.18 60.99 59.91 59.87 60.09 60.37 60.87 61.12 60.77 61.52 61.81 62.17 61.66 60.74 60.07 58.85 58.47 57.81 57.53 55.36 56.29 54.35 53.13 53.80 55.85 55.94
50.37 51.12 53.58 53.96 51.79 53.56 53.00 52.21 46.47 44.66 44.94 44.44 50.44 47.67 52.13 55.93 57.23 59.57 59.81 59.88 59.55 59.72 60.05 59.79 59.72 59.98 60.44 60.52 60.90 60.13 59.30 57.49 56.92 56.84 57.26 56.83 56.02 55.70 54.44 54.58 54.70 54.87 54.34 54.68
46.76 44.73 50.74 53.67 52.41 51.36 51.65 51.91 47.40 41.62 42.98 45.30 49.78 45.68 51.33 57.58 60.06 60.87 60.17 59.84 59.04 58.86 60.31 59.81 60.07 60.10 59.93 59.85 59.21 58.28 57.22 56.44 56.70 56.62 56.04 55.77 55.65 54.59 54.25 52.96 54.31 53.93 53.93 54.35
47.45 46.73 51.91 52.81 54.11 54.02 51.22 49.19 53.47 49.27 48.80 45.64 47.77 51.29 54.99 58.34 58.70 59.46 60.08 59.76 59.03 58.41 59.28 58.82 59.12 59.68 59.59 58.33 57.12 56.58 56.12 55.63 55.39 54.28 52.52 52.48 53.68 53.99 52.08 54.59 54.55 53.48 54.57 53.86
51.73 46.95 50.96 51.86 53.44 53.18 53.17 54.63 48.09 49.60 42.93 41.34 46.00 47.16 50.16 54.79 56.92 59.12 59.79 60.05 59.65 58.85 58.85 58.95 59.30 58.42 57.72 56.86 55.91 55.55 55.43 54.43 53.80 53.81 54.05 54.06 53.90 54.59 54.00 53.76 53.34 53.47 53.98 54.36
53.54 51.64 49.39 51.74 50.38 49.88 50.34 50.08 51.13 52.37 50.21 44.49 43.20 47.56 55.54 55.78 58.02 58.68 60.05 61.50 60.43 59.40 58.94 58.93 58.30 57.67 56.71 56.12 55.94 55.13 54.38 53.55 52.97 53.29 53.58 53.58 53.57 53.37 53.22 52.56 52.56 52.60 52.64 52.62
53.78 52.20 48.24 48.91 53.58 54.69 53.07 51.81 52.47 47.59 46.91 48.59 47.87 48.06 57.23 58.61 59.28 60.12 60.30 61.60 61.15 60.72 59.53 58.80 57.88 57.04 56.46 55.25 54.37 53.62 53.48 53.59 53.17 53.20 52.27 52.89 53.00 52.92 52.63 52.36 52.67 52.75 51.94 52.49
54.20 50.78 46.20 47.49 51.20 53.46 51.17 52.32 52.91 53.10 53.34 48.61 46.17 48.31 58.43 58.99 59.04 59.87 60.09 61.12 60.31 59.82 59.02 58.15 57.29 56.66 55.38 54.25 53.70 52.75 52.91 51.83 50.45 51.10 52.45 51.99 52.16 52.07 52.09 51.93 52.70 52.18 51.87 52.20
56.45 52.70 49.63 45.70 48.36 51.63 49.91 51.38 52.66 52.96 48.73 48.68 49.08 50.17 55.13 57.34 57.86 59.39 60.04 61.23 59.88 59.23 58.18 57.94 57.05 56.57 55.21 54.28 52.92 52.28 51.28 49.40 50.36 50.12 50.12 51.93 51.52 52.95 52.92 51.65 52.34 52.28 52.33 51.99
55.89 50.53 51.50 50.96 51.28 51.20 51.25 50.93 51.48 50.98 51.59 48.87 50.31 51.11 53.91 56.62 58.40 59.80 61.49 61.01 58.90 57.90 57.44 57.02 56.82 56.40 55.39 53.84 52.67 51.39 50.56 46.50 51.34 49.52 50.67 51.01 51.44 53.20 52.45 51.56 51.93 52.26 51.90 51.40
56.88 51.80 52.66 49.42 51.16 50.73 49.42 51.30 51.77 51.81 51.97 51.74 51.56 51.53 57.14 58.14 58.32 58.12 60.18 59.99 58.24 57.83 57.21 56.83 56.87 56.15 54.73 53.18 51.66 50.29 46.23 49.48 50.63 50.53 50.38 51.54 52.17 51.68 51.89 51.36 51.77 51.61 51.48 51.37
54.12 53.57 51.25 47.29 50.45 50.37 47.50 51.03 52.02 52.53 53.51 52.74 49.99 53.69 56.89 55.27 56.62 58.12 59.34 60.10 58.83 58.13 57.52 56.77 56.45 55.89 54.75 52.31 52.15 47.38 49.44 50.56 51.62 51.39 51.50 51.45 51.14 50.47 51.63 51.15 51.11 51.06 50.96 51.31
54.59 54.28 52.70 48.74 49.76 41.73 50.78 54.75 54.20 52.71 52.87 54.28 53.16 53.26 55.24 57.17 58.51 59.42 60.12 60.34 59.62 58.81 57.57 57.38 56.91 55.59 53.49 53.28 49.54 49.63 48.32 49.43 50.87 51.26 50.70 51.00 50.51 50.61 51.12 51.19 50.82 51.23 51.08 50.74
56.75 54.37 49.81 46.99 46.47 48.55 48.91 51.70 51.56 51.08 50.79 54.16 53.42 54.34 56.02 57.68 58.43 57.72 59.05 60.47 60.31 59.59 58.96 58.26 57.33 55.36 53.43 50.40 48.45 47.50 49.76 50.83 50.73 50.40 50.15 50.20 50.65 50.46 50.89 50.38 50.50 51.03 50.45 50.38
55.31 56.00 51.17 48.55 44.14 41.98 50.73 53.97 55.52 54.41 47.46 55.24 55.10 54.91 56.25 57.20 51.50 54.80 58.45 59.36 59.47 59.38 58.42 56.69 55.61 53.11 51.28 48.57 47.61 50.21 51.06 50.99 50.47 50.12 50.30 51.03 51.12 50.70 50.54 50.69 50.90 51.04 51.08 50.32
49.49 50.80 47.80 46.80 45.76 48.16 54.16 54.87 56.27 45.71 48.88 55.44 56.34 56.86 56.91 56.34 57.39 57.19 58.45 58.02 58.47 57.58 56.19 54.82 52.43 50.91 48.49 48.33 49.62 46.95 49.63 50.37 50.34 51.00 51.00 51.20 51.47 51.03 50.57 51.13 51.52 50.97 50.50 50.13
47.94 47.15 47.10 48.64 45.78 42.91 56.18 54.91 49.90 55.99 57.75 57.60 58.20 58.44 58.73 58.44 57.27 57.05 56.73 56.24 55.66 54.20 52.38 52.39 50.98 45.93 50.33 50.18 48.71 47.09 47.77 50.27 50.28 50.58 50.66 51.05 51.50 50.49 49.87 50.52 50.51 50.52 50.22 49.49
47.50 51.22 48.88 49.50 49.48 57.06 57.98 57.50 59.72 58.87 57.65 58.32 58.90 59.61 60.14 57.97 56.89 56.58 55.55 55.12 54.27 53.22 52.23 51.25 50.46 48.22 47.61 48.01 48.45 49.69 50.99 51.33 50.52 50.36 50.19 50.20 50.45 49.98 50.18 49.80 49.53 48.49 49.57 48.35
52.08 53.50 51.77 51.89 53.68 55.79 56.98 59.00 60.05 60.19 59.80 60.36 61.14 59.87 58.98 57.67 56.79 55.82 55.43 54.49 53.48 52.41 51.87 51.09 48.46 48.49 45.90 49.73 50.73 51.98 51.75 51.48 51.26 50.74 50.61 50.25 49.81 48.86 50.25 49.39 48.77 48.26 48.11 47.75
52.75 53.54 52.21 51.54 53.79 54.63 56.17 58.49 59.11 59.40 59.92 58.82 58.91 58.78 58.65 57.93 56.85 56.12 55.08 54.47 54.07 52.89 51.24 49.98 48.89 49.67 51.26 51.52 51.79 52.49 52.25 51.98 50.89 50.87 50.39 49.84 49.26 49.46 49.27 49.38 48.73 48.33 49.12 44.45
53.95 53.06 50.01 48.87 54.45 54.66 56.91 58.93 59.23 58.25 57.84 58.19 57.81 57.62 58.15 58.12 56.40 56.16 54.92 55.12 54.05 52.14 51.21 50.76 51.96 51.76 51.52 51.76 51.75 52.11 52.97 51.43 50.93 49.41 48.23 48.61 48.48 48.42 48.48 48.26 48.29 39.23 39.24 39.08
MSLP
1009.03 1008.35 1007.39 1006.88 1006.87 1006.77 1006.58 1005.86 1005.38 1005.53 1006.22 1006.29 1005.53 1005.32 1004.99 1005.43 1005.89 1005.76 1005.77 1006.20 1007.07 1007.82 1008.67 1009.49 1010.79 1011.51 1012.10 1013.07 1014.18 1014.93 1015.74 1016.55 1016.96 1017.27 1017.17 1017.61 1017.76 1018.72 1019.24 1019.52 1020.25 1020.58 1020.73 1020.61
1008.74 1007.67 1006.99 1007.61 1007.86 1007.61 1007.17 1006.54 1005.95 1005.80 1006.55 1006.36 1005.38 1005.40 1005.25 1006.34 1006.34 1006.55 1006.50 1006.55 1007.05 1008.07 1008.98 1010.20 1011.49 1012.17 1013.07 1014.03 1014.83 1015.70 1016.21 1016.83 1017.29 1017.52 1017.55 1017.73 1018.31 1018.57 1019.15 1019.45 1020.08 1020.23 1020.67 1020.77
1007.23 1006.91 1007.37 1007.93 1007.88 1007.63 1007.06 1006.52 1006.16 1006.03 1006.19 1006.27 1005.92 1005.40 1005.72 1006.84 1007.25 1007.79 1008.60 1009.05 1009.44 1009.96 1010.22 1010.91 1012.45 1013.43 1014.22 1014.89 1015.62 1016.29 1016.77 1017.27 1017.68 1017.80 1018.21 1018.52 1018.68 1018.64 1018.53 1019.09 1019.76 1020.06 1020.01 1020.51
1007.03 1007.00 1007.71 1007.61 1007.26 1007.32 1006.46 1006.73 1006.47 1006.21 1006.19 1005.22 1005.75 1004.50 1005.35 1006.42 1007.68 1008.63 1009.37 1010.09 1011.01 1011.32 1011.17 1011.60 1013.20 1014.45 1015.35 1016.11 1016.80 1017.31 1017.81 1018.07 1018.18 1018.35 1018.36 1018.07 1018.00 1018.00 1019.65 1019.59 1020.33 1020.22 1020.10 1020.34
1006.38 1006.86 1007.29 1007.04 1006.89 1007.08 1006.37 1007.02 1006.65 1006.43 1005.95 1005.34 1005.52 1005.69 1005.20 1006.52 1007.35 1008.86 1010.03 1011.10 1012.09 1012.66 1012.75 1013.36 1014.31 1015.49 1016.47 1017.05 1017.66 1018.20 1018.54 1018.81 1019.05 1019.12 1019.22 1019.47 1019.72 1020.08 1020.20 1020.17 1020.06 1019.75 1020.12 1020.14
1006.17 1006.99 1006.81 1006.46 1006.77 1007.19 1007.26 1007.08 1006.70 1006.49 1005.69 1005.56 1005.08 1005.88 1004.52 1005.69 1007.74 1008.86 1010.25 1011.72 1012.85 1013.46 1014.17 1014.92 1015.64 1016.32 1016.94 1017.56 1018.11 1018.75 1019.34 1019.93 1020.34 1020.51 1020.49 1020.37 1020.28 1020.40 1020.52 1020.43 1020.05 1020.00 1019.30 1019.73
1006.35 1006.27 1006.53 1006.57 1006.52 1006.86 1006.86 1006.36 1005.61 1005.64 1005.10 1004.76 1005.68 1006.15 1005.80 1007.40 1008.65 1009.73 1010.74 1012.04 1013.23 1013.93 1014.49 1015.21 1015.85 1016.48 1017.15 1017.87 1018.53 1019.28 1019.92 1020.42 1020.79 1020.79 1020.78 1020.82 1020.88 1021.01 1021.00 1020.17 1019.85 1020.16 1019.69 1019.68
1005.21 1005.32 1005.52 1005.98 1005.91 1005.36 1005.79 1005.45 1004.57 1004.74 1004.28 1004.60 1006.12 1005.78 1006.22 1008.04 1009.46 1010.58 1011.72 1012.63 1013.65 1014.34 1014.82 1015.49 1016.20 1016.87 1017.53 1018.40 1019.04 1019.52 1020.02 1020.35 1020.72 1020.93 1021.13 1021.26 1021.17 1021.02 1020.77 1020.95 1020.39 1020.38 1020.28 1019.88
1004.47 1004.39 1004.89 1005.25 1005.49 1005.45 1005.44 1005.68 1005.34 1005.30 1005.54 1005.28 1004.80 1005.93 1007.40 1008.37 1009.35 1010.41 1011.25 1012.37 1013.49 1014.63 1015.30 1016.05 1016.90 1017.46 1018.06 1018.93 1019.57 1019.87 1020.17 1020.56 1020.99 1021.43 1021.77 1021.86 1021.79 1021.70 1021.54 1020.82 1020.89 1020.40 1020.33 1019.94
1004.59 1004.39 1004.84 1005.26 1005.53 1005.81 1005.34 1005.07 1005.82 1005.81 1005.32 1005.25 1004.51 1005.27 1005.42 1007.22 1008.16 1009.40 1010.47 1011.62 1013.09 1014.53 1015.43 1016.32 1017.03 1018.01 1018.68 1019.45 1019.99 1020.32 1020.61 1021.04 1021.46 1021.47 1021.66 1021.72 1021.69 1021.54 1021.39 1020.99 1020.92 1020.78 1020.31 1020.09
1004.33 1004.69 1004.88 1005.31 1004.83 1004.34 1005.40 1005.13 1005.47 1005.64 1005.55 1005.16 1005.02 1004.55 1005.14 1006.01 1007.31 1008.31 1009.35 1010.69 1012.44 1013.88 1015.19 1016.24 1017.30 1018.29 1018.97 1019.43 1019.85 1020.46 1020.77 1021.12 1021.46 1021.73 1021.80 1021.60 1021.57 1021.53 1021.46 1021.16 1020.98 1020.74 1020.49 1020.14
1004.36 1004.95 1004.22 1004.20 1004.67 1004.90 1004.27 1004.29 1004.70 1005.06 1005.41 1005.77 1005.71 1005.45 1006.26 1006.29 1007.16 1008.06 1008.92 1010.42 1012.04 1013.53 1014.86 1016.20 1017.45 1018.37 1018.94 1019.53 1020.13 1020.77 1021.14 1021.30 1021.81 1021.78 1022.06 1021.61 1021.50 1021.56 1021.46 1021.27 1021.20 1020.75 1020.48 1019.91
1004.46 1004.75 1004.49 1004.24 1004.98 1005.35 1004.85 1004.91 1005.20 1005.38 1005.58 1005.06 1005.46 1005.72 1006.37 1007.15 1007.67 1008.37 1008.94 1010.50 1012.26 1013.59 1014.79 1015.94 1017.28 1018.21 1018.92 1019.65 1020.31 1020.88 1021.28 1021.77 1022.02 1022.27 1022.12 1021.98 1021.55 1021.46 1021.41 1021.31 1021.18 1020.91 1020.38 1019.89
1004.51 1004.27 1004.14 1003.42 1003.13 1003.38 1004.30 1004.64 1004.99 1005.20 1004.94 1004.72 1005.22 1005.20 1006.34 1007.19 1007.71 1008.44 1009.41 1010.63 1012.25 1013.72 1014.99 1015.81 1016.93 1018.10 1018.99 1019.67 1020.35 1021.02 1021.67 1022.32 1022.40 1022.47 1022.16 1021.71 1021.69 1021.48 1021.20 1021.31 1021.13 1020.84 1020.44 1019.94
1004.65 1004.17 1004.12 1003.71 1003.45 1003.56 1003.86 1004.14 1004.67 1004.89 1004.86 1004.97 1004.56 1005.33 1005.59 1006.68 1007.37 1008.10 1009.15 1010.73 1012.22 1013.57 1014.90 1015.96 1016.76 1017.89 1018.98 1019.75 1020.51 1021.26 1022.05 1022.72 1022.45 1022.29 1021.82 1021.71 1021.65 1021.44 1021.13 1021.12 1021.03 1020.71 1020.44 1020.10
1004.77 1004.01 1004.21 1003.88 1004.18 1004.01 1003.92 1003.99 1004.47 1004.68 1005.04 1005.23 1005.61 1005.78 1006.38 1007.56 1008.15 1008.48 1008.95 1010.68 1012.07 1013.28 1014.53 1015.86 1016.69 1017.82 1018.86 1019.74 1020.64 1021.57 1022.40 1022.20 1022.23 1021.90 1021.66 1021.48 1021.44 1021.20 1020.89 1020.90 1020.81 1020.59 1020.40 1020.06
1004.28 1004.23 1004.22 1003.74 1004.36 1004.19 1003.99 1004.10 1004.45 1004.85 1005.11 1005.20 1005.50 1005.90 1007.06 1007.77 1008.46 1008.93 1009.52 1010.71 1011.93 1013.14 1014.46 1015.75 1016.70 1017.88 1018.93 1020.16 1021.07 1022.04 1021.95 1021.98 1021.88 1021.62 1021.39 1021.02 1021.13 1020.96 1020.62 1020.64 1020.53 1020.42 1020.28 1019.98
1003.99 1004.13 1003.84 1003.38 1004.93 1004.53 1004.27 1004.75 1004.95 1005.13 1005.37 1005.77 1006.25 1006.79 1007.60 1008.56 1009.57 1010.22 1010.52 1010.97 1012.10 1013.37 1014.65 1015.78 1016.89 1018.13 1019.48 1020.61 1021.64 1022.00 1022.32 1022.14 1021.64 1021.35 1021.05 1020.80 1020.77 1020.54 1020.41 1020.24 1020.16 1020.21 1020.08 1019.81
1004.06 1003.98 1003.88 1004.15 1004.45 1004.45 1005.42 1005.55 1005.44 1005.35 1005.58 1006.11 1006.49 1007.12 1008.16 1009.12 1009.98 1011.13 1011.97 1012.19 1012.81 1013.94 1015.08 1016.17 1017.30 1018.61 1019.94 1021.10 1021.78 1022.04 1021.91 1021.71 1021.39 1021.12 1020.91 1020.68 1020.66 1020.39 1020.03 1019.73 1019.74 1019.84 1019.70 1019.46
1004.59 1004.61 1004.26 1004.23 1003.74 1003.67 1004.07 1005.33 1005.91 1006.03 1005.60 1005.55 1006.79 1007.36 1008.27 1009.18 1009.42 1011.71 1012.76 1013.32 1014.08 1014.92 1015.92 1017.00 1018.14 1019.43 1020.44 1021.63 1022.09 1021.63 1021.47 1021.28 1021.05 1021.03 1021.03 1020.67 1020.49 1020.29 1019.85 1019.73 1019.60 1019.49 1019.30 1018.77
1004.32 1004.30 1004.13 1004.13 1004.32 1004.10 1004.97 1005.93 1006.47 1006.33 1006.43 1006.83 1007.41 1007.86 1008.71 1009.50 1011.40 1012.94 1013.75 1014.46 1015.18 1015.95 1016.90 1018.08 1019.14 1019.84 1020.93 1021.53 1021.61 1021.74 1021.37 1021.14 1021.28 1021.15 1020.89 1020.53 1020.34 1020.14 1019.87 1019.69 1019.36 1019.15 1018.84 1018.50
1003.90 1004.13 1004.07 1004.20 1004.42 1004.73 1005.63 1006.52 1006.61 1006.89 1007.07 1007.34 1008.08 1008.64 1009.49 1011.14 1012.44 1013.46 1014.43 1015.29 1016.14 1016.95 1017.95 1018.64 1019.54 1020.96 1021.01 1021.51 1021.74 1021.61 1021.33 1021.38 1021.24 1021.05 1020.71 1020.36 1020.15 1019.88 1019.51 1019.37 1019.05 1018.71 1018.49 1018.11
1004.51 1004.25 1004.19 1005.19 1005.16 1005.99 1006.24 1006.71 1007.43 1007.46 1007.35 1007.88 1008.43 1009.29 1010.04 1011.42 1012.61 1013.79 1014.82 1015.72 1016.56 1017.37 1018.16 1019.24 1019.74 1020.67 1021.33 1021.72 1021.77 1021.19 1021.22 1021.23 1021.17 1020.84 1020.48 1020.21 1020.05 1019.62 1019.35 1019.08 1018.71 1018.13 1017.73 1017.47
1005.56 1005.72 1005.16 1006.01 1006.42 1006.55 1007.18 1007.70 1007.95 1008.09 1008.06 1008.64 1009.13 1010.07 1010.91 1011.78 1013.01 1014.02 1014.96 1015.86 1016.76 1017.69 1018.43 1019.29 1020.13 1020.43 1021.27 1021.43 1021.13 1021.11 1021.14 1021.17 1020.98 1020.64 1020.34 1019.98 1019.78 1019.64 1019.08 1018.76 1018.15 1017.87 1017.60 1017.49
1005.32 1006.00 1005.97 1006.14 1006.85 1007.40 1007.65 1008.01 1008.40 1008.85 1009.22 1009.65 1010.14 1010.66 1011.31 1012.17 1013.14 1014.05 1015.01 1015.92 1016.72 1017.68 1018.53 1019.32 1019.94 1020.19 1020.24 1020.69 1020.83 1020.97 1021.04 1021.07 1020.78 1020.58 1020.22 1019.74 1019.33 1019.12 1018.71 1018.32 1018.23 1018.10 1018.26 1018.86
1006.20 1005.89 1006.10 1006.04 1006.63 1007.39 1007.54 1008.57 1009.14 1009.39 1009.75 1010.22 1010.69 1011.39 1012.05 1012.57 1013.41 1014.31 1015.20 1016.09 1016.84 1017.54 1018.23 1018.90 1019.34 1019.84 1020.12 1020.42 1020.67 1020.92 1021.07 1021.09 1020.85 1020.51 1020.01 1019.69 1019.39 1018.78 1018.33 1018.03 1017.80 1018.66 1018.68 1018.88
Wind_Speed
13 11 12 13 8 8 8 8 9 9 4 6 10 11 11 5 11 14 16 15 13 11 8 10 11 11 10 5 8 9 9 8 8 7 8 8 7 6 5 5 6 7 8 8
8 15 9 2 6 8 10 12 12 7 3 8 8 12 4 1 6 8 11 10 9 8 8 4 5 7 8 8 7 8 9 11 8 5 3 3 4 5 5 4 3 4 6 9
16 2 4 11 10 11 12 13 12 12 9 7 6 12 10 5 4 6 6 4 6 4 6 5 5 3 4 5 6 7 9 10 6 9 8 6 6 5 5 3 4 3 6 6
14 10 6 11 12 12 12 13 12 11 11 11 8 8 12 9 6 3 4 6 5 7 1 4 6 5 6 7 7 8 8 9 8 8 6 8 5 4 6 2 4 4 6 6
12 11 16 13 13 10 2 2 11 14 14 9 12 9 9 10 10 5 7 8 9 10 10 9 9 8 9 8 8 8 9 9 7 5 4 3 5 2 2 4 3 4 1 5
16 3 8 17 9 7 3 5 8 9 10 12 11 5 7 7 2 4 8 10 9 9 9 9 9 9 10 11 11 10 10 10 9 8 8 8 7 5 3 5 4 3 4 4
15 14 10 4 12 9 10 10 9 10 11 10 6 6 6 7 4 2 4 6 8 7 8 9 9 10 10 10 10 9 8 8 7 7 7 7 6 6 5 5 6 7 5 5
14 15 21 13 17 12 16 13 8 9 7 6 7 7 8 5 5 4 4 4 5 5 8 9 10 10 10 9 9 9 8 8 7 7 7 7 7 4 5 5 6 6 7 7
13 14 5 14 16 17 9 11 6 8 4 9 7 8 6 8 7 7 7 5 6 7 8 9 9 9 9 9 8 7 7 7 8 7 6 5 5 7 5 7 7 7 8 9
8 8 10 10 9 5 12 9 8 8 10 12 9 5 4 13 12 11 10 9 9 9 10 10 10 9 8 8 7 7 7 8 7 5 5 5 5 6 7 7 9 10 10 11
11 7 11 11 14 15 10 12 8 7 5 8 10 5 5 8 11 12 12 12 12 12 11 11 10 9 8 7 7 7 6 6 5 6 4 5 6 7 7 7 9 11 11 11
17 8 8 15 7 4 6 12 16 11 12 7 9 8 2 8 10 9 10 11 11 11 12 11 10 10 8 7 7 7 6 4 4 6 5 5 5 6 6 8 10 11 10 10
16 11 12 11 8 7 10 11 9 6 5 7 9 4 7 7 7 8 9 11 11 12 13 12 11 9 8 7 7 6 6 5 3 5 3 2 5 5 6 8 10 10 10 10
12 13 17 12 13 15 15 12 12 13 9 10 11 5 11 9 9 9 7 10 11 11 12 12 11 9 8 7 7 6 5 4 4 2 4 3 4 5 6 7 9 9 9 9
13 13 17 18 12 9 13 16 15 14 12 8 4 8 4 7 8 10 9 10 12 12 13 12 11 10 8 7 7 6 6 2 2 4 5 5 4 6 5 6 7 8 9 9
8 8 12 12 10 12 12 13 14 13 9 6 4 6 4 2 3 6 8 12 13 13 13 12 12 10 9 8 6 5 2 4 3 4 4 5 6 6 5 5 6 7 9 10
12 9 11 11 9 10 12 13 15 12 10 9 10 2 4 3 3 2 6 10 11 11 12 12 12 10 8 7 6 5 3 0 3 4 4 3 5 6 6 5 6 7 8 8
10 13 8 8 10 13 6 6 5 8 5 7 1 3 1 2 3 3 4 6 7 9 11 11 10 9 9 8 6 4 2 4 4 3 4 4 5 6 6 6 6 6 6 7
6 10 4 7 13 7 7 6 8 10 8 7 5 3 3 5 6 7 5 3 6 9 9 10 9 10 10 8 5 3 6 4 4 4 5 5 7 7 7 7 7 7 7 6
6 6 9 8 13 13 9 12 3 2 10 7 4 4 6 6 10 11 7 8 10 10 10 11 11 11 9 6 5 6 2 3 3 4 6 6 7 8 8 8 8 7 7 7
10 10 14 9 10 5 10 9 7 9 4 7 5 4 4 2 7 10 9 10 10 11 13 13 12 10 8 6 4 2 3 3 5 5 6 6 7 7 7 7 7 7 8 7
13 11 9 10 11 10 12 8 10 5 6 7 5 4 6 10 10 10 10 11 12 13 14 12 11 8 7 6 3 0 3 4 4 5 6 7 7 6 7 8 8 8 7 8
11 5 5 6 6 8 7 2 6 1 5 5 6 6 8 9 9 11 11 12 13 13 11 10 10 9 6 4 4 3 3 4 4 5 6 6 8 7 7 8 7 8 7 7
4 3 4 7 7 8 6 4 2 2 3 5 7 8 8 9 11 12 12 12 12 11 11 9 10 8 6 6 4 1 3 4 5 6 6 6 7 6 7 8 6 7 8 9
4 8 8 5 6 4 5 2 4 6 8 9 9 8 9 12 12 13 12 12 11 11 11 10 9 8 7 5 3 1 3 5 6 8 7 5 7 6 7 6 6 6 7 7
5 6 7 4 4 5 6 6 7 9 10 9 11 10 9 11 13 13 12 10 11 11 11 10 8 6 5 4 2 0 2 4 5 6 4 5 7 6 6 7 7 7 4 7
Wind_Direction
201 219 217 214 224 318 290 258 234 189 120 252 238 237 243 201 227 233 232 227 226 246 231 207 201 227 214 206 196 201 180 166 171 171 171 167 153 138 115 74 34 6 0 356
180 227 227 220 212 222 228 232 224 214 172 236 222 237 174 289 271 292 287 281 255 223 205 170 217 208 194 190 181 175 166 168 165 152 172 139 156 115 105 72 55 40 0 357
229 88 237 206 196 218 225 231 230 239 172 229 246 237 172 123 99 84 67 38 32 342 294 198 177 155 146 152 152 158 153 148 138 140 140 140 140 160 174 124 50 33 37 354
237 192 183 203 224 215 225 211 235 224 223 236 190 269 161 138 132 111 81 65 36 11 178 109 111 94 77 83 96 114 128 134 140 150 168 189 211 236 32 44 63 7 42 1
209 210 213 220 222 201 78 217 223 217 226 260 193 247 120 156 159 118 78 64 51 49 43 65 71 83 95 112 112 112 111 104 102 97 71 42 37 71 91 33 59 52 23 354
243 175 220 216 162 212 122 197 188 211 218 224 227 249 233 143 92 120 85 71 61 64 79 86 94 106 109 111 107 101 88 64 49 48 50 57 62 42 32 35 19 313 10 331
215 210 195 213 204 189 208 202 192 207 204 240 132 222 53 112 129 37 49 56 50 57 86 104 113 112 113 108 103 94 84 78 72 69 64 69 67 51 57 3 19 336 339 340
206 203 208 191 229 208 204 220 255 243 207 218 145 233 123 125 129 117 103 99 99 91 103 110 112 115 113 100 94 96 96 87 76 67 65 58 28 39 29 29 8 327 317 324
202 229 166 211 207 228 174 222 295 261 264 282 255 124 169 165 170 175 170 158 128 125 123 127 126 126 118 100 89 90 86 82 70 70 66 58 38 23 4 10 337 339 314 333
199 213 196 170 195 198 258 174 193 213 244 240 228 239 276 184 190 184 181 177 153 149 150 146 141 124 114 104 100 83 71 70 81 69 51 42 36 8 358 354 342 328 322 316
190 255 156 172 206 189 182 212 231 294 315 263 269 254 85 172 179 176 175 167 162 163 157 155 141 135 124 121 104 98 95 91 85 62 33 42 20 11 1 350 341 332 323 307
209 217 214 200 98 335 282 239 212 234 215 234 274 281 136 146 160 171 166 155 151 159 154 151 147 147 143 126 115 109 98 92 61 49 6 30 13 5 1 352 338 337 320 326
183 212 207 220 193 194 228 203 235 248 276 233 237 232 144 151 168 183 182 155 155 161 156 155 154 157 145 133 134 127 114 77 73 26 350 339 15 354 358 351 348 344 342 334
181 216 221 221 218 205 202 210 214 212 228 234 226 243 161 190 201 197 200 164 167 174 164 161 162 163 158 148 147 137 118 94 8 8 299 317 334 336 350 345 351 353 352 342
191 211 217 229 256 214 211 198 196 210 239 262 277 217 141 185 205 212 191 177 173 177 173 171 171 169 164 162 150 142 110 44 282 271 296 338 315 314 327 342 344 354 351 347
192 204 208 208 230 225 219 210 203 215 204 210 205 236 32 43 288 249 195 182 189 183 180 179 174 171 172 161 154 131 162 230 251 257 258 300 317 313 326 323 332 345 351 359
182 164 190 195 206 195 212 195 195 185 199 229 221 335 108 221 263 274 214 193 194 182 179 179 173 174 161 154 145 170 207 148 253 274 279 305 327 318 314 311 318 341 346 352
182 196 198 164 169 212 90 121 208 224 222 211 196 230 7 8 75 49 8 173 174 167 172 170 164 160 151 133 145 168 181 230 256 275 298 327 320 316 316 306 317 325 331 337
208 195 162 177 209 120 148 173 177 191 194 207 246 174 168 131 153 100 59 67 132 151 153 150 147 148 135 140 149 167 214 245 277 312 319 337 320 315 318 321 323 309 311 324
157 248 228 192 243 218 246 138 156 148 248 156 218 198 165 178 243 85 97 107 116 126 129 138 134 126 133 125 186 210 229 272 326 337 322 324 326 320 321 328 319 311 296 298
187 208 217 196 231 191 104 139 168 231 70 107 162 149 156 181 46 105 108 105 114 123 128 125 135 132 118 184 124 215 264 344 342 312 312 320 326 324 319 319 312 304 302 316
202 200 206 230 211 218 136 139 231 63 108 119 148 134 131 111 120 119 118 121 126 126 136 136 120 135 151 122 174 255 18 350 320 307 308 330 330 318 327 318 308 315 315 308
219 238 206 234 222 99 172 29 95 38 136 154 146 132 127 136 134 134 132 136 135 139 124 138 142 125 120 123 233 190 39 353 337 314 328 331 324 333 324 310 314 307 322 313
145 172 179 189 131 112 147 150 124 189 148 126 118 131 138 139 142 138 141 139 139 141 144 134 142 139 145 197 173 251 6 358 320 322 323 334 311 331 326 310 332 335 343 341
62 172 153 135 138 163 166 183 135 127 124 120 116 131 133 143 146 146 143 145 143 140 145 145 145 170 155 158 159 167 12 337 339 333 328 333 324 331 312 329 335 334 27 11
195 135 215 240 86 275 75 137 155 148 141 131 128 125 131 140 142 145 145 146 147 151 146 158 160 159 148 155 141 115 345 326 325 309 336 338 313 329 333 332 334 117 108 129